Time,TemperatureF,DewpointF,PressureIn,WindDirection,WindDirectionDegrees,WindSpeedMPH,WindSpeedGustMPH,Humidity,HourlyPrecipIn,Conditions,Clouds,dailyrainin,SoftwareType,DateUTC
2013-06-22 00:02:00,39.9,38.3,29.83,South,180,1.0,1.0,94,0.00,,,0.00,meteohub,2013-06-21 11:02:00,
2013-06-22 00:07:00,39.9,38.3,29.82,South,180,0.0,2.0,94,0.00,,,0.00,meteohub,2013-06-21 11:07:00,
2013-06-22 00:12:00,40.1,38.5,29.83,South,180,0.0,2.0,94,0.00,,,0.00,meteohub,2013-06-21 11:12:00,
2013-06-22 00:17:00,40.1,38.5,29.83,South,180,0.0,2.0,94,0.00,,,0.00,meteohub,2013-06-21 11:17:00,
2013-06-22 00:22:00,40.1,38.5,29.83,South,180,0.0,0.0,94,0.00,,,0.00,meteohub,2013-06-21 11:22:00,
2013-06-22 00:27:00,40.3,38.7,29.83,West,270,1.0,1.0,94,0.00,,,0.00,meteohub,2013-06-21 11:27:00,
2013-06-22 00:32:00,40.3,38.7,29.82,SW,225,0.0,1.0,94,0.00,,,0.00,meteohub,2013-06-21 11:32:00,
2013-06-22 00:37:00,40.5,39.2,29.83,NE,45,0.0,1.0,95,0.00,,,0.00,meteohub,2013-06-21 11:37:00,
2013-06-22 00:42:00,40.5,39.2,29.83,West,270,2.0,2.0,95,0.00,,,0.00,meteohub,2013-06-21 11:42:00,
2013-06-22 00:47:00,40.6,39.4,29.83,SW,225,1.0,2.0,95,0.00,,,0.00,meteohub,2013-06-21 11:47:00,
2013-06-22 00:52:00,40.8,39.6,29.83,SW,225,1.0,2.0,95,0.00,,,0.00,meteohub,2013-06-21 11:52:00,
2013-06-22 00:57:00,40.8,39.6,29.83,SW,225,0.0,2.0,95,0.00,,,0.00,meteohub,2013-06-21 11:57:00,
2013-06-22 01:02:00,41.0,39.4,29.83,SW,225,1.0,2.0,94,0.00,,,0.00,meteohub,2013-06-21 12:02:00,
2013-06-22 01:07:00,41.0,39.4,29.83,SW,225,1.0,2.0,94,0.00,,,0.00,meteohub,2013-06-21 12:07:00,
2013-06-22 01:12:00,41.2,39.6,29.83,SW,225,1.0,2.0,94,0.00,,,0.00,meteohub,2013-06-21 12:12:00,
2013-06-22 01:17:00,41.0,39.4,29.83,SW,225,0.0,2.0,94,0.00,,,0.00,meteohub,2013-06-21 12:17:00,
2013-06-22 01:22:00,41.2,39.6,29.83,SW,225,2.0,2.0,94,0.00,,,0.00,meteohub,2013-06-21 12:22:00,
2013-06-22 01:27:00,41.4,39.7,29.83,East,90,1.0,2.0,94,0.00,,,0.00,meteohub,2013-06-21 12:27:00,
2013-06-22 01:32:00,41.5,39.9,29.83,SW,225,2.0,2.0,94,0.00,,,0.00,meteohub,2013-06-21 12:32:00,
2013-06-22 01:37:00,41.7,40.1,29.83,SW,225,0.0,2.0,94,0.00,,,0.00,meteohub,2013-06-21 12:37:00,
2013-06-22 01:43:00,41.7,40.1,29.83,SW,225,1.0,2.0,94,0.00,,,0.00,meteohub,2013-06-21 12:43:00,
2013-06-22 01:49:00,41.9,40.3,29.83,SW,225,2.0,2.0,94,0.00,,,0.00,meteohub,2013-06-21 12:49:00,
2013-06-22 01:55:00,42.1,40.3,29.83,SW,225,0.0,2.0,93,0.00,,,0.00,meteohub,2013-06-21 12:55:00,
2013-06-22 02:01:00,42.3,40.5,29.83,SW,225,1.0,2.0,93,0.00,,,0.00,meteohub,2013-06-21 13:01:00,
2013-06-22 02:07:00,42.3,40.5,29.83,SW,225,2.0,2.0,93,0.00,,,0.00,meteohub,2013-06-21 13:07:00,
2013-06-22 02:13:00,42.4,40.3,29.83,SW,225,0.0,4.0,92,0.00,,,0.00,meteohub,2013-06-21 13:13:00,
2013-06-22 02:19:00,42.6,40.8,29.83,SE,135,1.0,4.0,93,0.00,,,0.00,meteohub,2013-06-21 13:19:00,
2013-06-22 02:25:00,42.8,41.2,29.83,South,180,0.0,2.0,94,0.00,,,0.00,meteohub,2013-06-21 13:25:00,
2013-06-22 02:31:00,42.8,41.2,29.83,SSW,203,0.0,2.0,94,0.00,,,0.00,meteohub,2013-06-21 13:31:00,
2013-06-22 02:37:00,42.8,41.0,29.83,SE,135,0.0,2.0,93,0.00,,,0.00,meteohub,2013-06-21 13:37:00,
2013-06-22 02:42:00,43.0,41.2,29.83,SE,135,1.0,2.0,93,0.00,,,0.00,meteohub,2013-06-21 13:42:00,
2013-06-22 02:47:00,43.0,41.2,29.83,SW,225,2.0,2.0,93,0.00,,,0.00,meteohub,2013-06-21 13:47:00,
2013-06-22 02:52:00,43.2,41.0,29.83,West,270,1.0,2.0,92,0.00,,,0.00,meteohub,2013-06-21 13:52:00,
2013-06-22 02:57:00,43.2,41.0,29.83,SW,225,1.0,2.0,92,0.00,,,0.00,meteohub,2013-06-21 13:57:00,
2013-06-22 03:02:00,43.3,41.2,29.83,West,270,2.0,2.0,92,0.00,,,0.00,meteohub,2013-06-21 14:02:00,
2013-06-22 03:07:00,43.5,41.4,29.83,SE,135,2.0,2.0,92,0.00,,,0.00,meteohub,2013-06-21 14:07:00,
2013-06-22 03:12:00,43.9,41.7,29.83,SW,225,1.0,2.0,92,0.00,,,0.00,meteohub,2013-06-21 14:12:00,
2013-06-22 03:17:00,44.1,41.5,29.83,West,270,1.0,2.0,91,0.00,,,0.00,meteohub,2013-06-21 14:17:00,
2013-06-22 03:22:00,44.1,41.5,29.84,West,270,2.0,2.0,91,0.00,,,0.00,meteohub,2013-06-21 14:22:00,
2013-06-22 03:27:00,44.2,41.7,29.84,SE,135,1.0,2.0,91,0.00,,,0.00,meteohub,2013-06-21 14:27:00,
2013-06-22 03:32:00,44.2,41.7,29.83,SE,135,2.0,2.0,91,0.00,,,0.00,meteohub,2013-06-21 14:32:00,
2013-06-22 03:37:00,44.4,41.9,29.84,SE,135,2.0,2.0,91,0.00,,,0.00,meteohub,2013-06-21 14:37:00,
2013-06-22 03:42:00,44.6,41.5,29.84,SW,225,1.0,3.0,89,0.00,,,0.00,meteohub,2013-06-21 14:42:00,
2013-06-22 03:47:00,44.6,41.5,29.84,SE,135,2.0,4.0,89,0.00,,,0.00,meteohub,2013-06-21 14:47:00,
2013-06-22 03:52:00,45.0,41.9,29.84,SE,135,2.0,4.0,89,0.00,,,0.00,meteohub,2013-06-21 14:52:00,
2013-06-22 03:57:00,45.1,42.1,29.84,South,180,1.0,4.0,89,0.00,,,0.00,meteohub,2013-06-21 14:57:00,
2013-06-22 04:02:00,45.1,42.1,29.84,East,90,1.0,3.0,89,0.00,,,0.00,meteohub,2013-06-21 15:02:00,
2013-06-22 04:07:00,45.1,42.1,29.85,SW,225,1.0,3.0,89,0.00,,,0.00,meteohub,2013-06-21 15:07:00,
2013-06-22 04:12:00,45.1,41.7,29.85,South,180,1.0,3.0,88,0.00,,,0.00,meteohub,2013-06-21 15:12:00,
2013-06-22 04:18:00,45.1,41.7,29.84,South,180,2.0,2.0,88,0.00,,,0.00,meteohub,2013-06-21 15:18:00,
2013-06-22 04:24:00,45.3,41.9,29.85,South,180,1.0,2.0,88,0.00,,,0.00,meteohub,2013-06-21 15:24:00,
2013-06-22 04:30:00,45.5,42.1,29.84,SW,225,0.0,3.0,88,0.00,,,0.00,meteohub,2013-06-21 15:30:00,
2013-06-22 04:36:00,46.0,42.6,29.84,SE,135,0.0,3.0,88,0.00,,,0.00,meteohub,2013-06-21 15:36:00,
2013-06-22 04:42:00,46.4,42.8,29.85,SE,135,1.0,2.0,87,0.00,,,0.00,meteohub,2013-06-21 15:42:00,
2013-06-22 04:47:00,46.6,42.6,29.85,SW,225,1.0,2.0,86,0.00,,,0.00,meteohub,2013-06-21 15:47:00,
2013-06-22 04:52:00,46.9,43.0,29.84,SW,225,0.0,2.0,86,0.00,,,0.00,meteohub,2013-06-21 15:52:00,
2013-06-22 04:57:00,47.7,43.7,29.85,West,270,1.0,1.0,86,0.00,,,0.00,meteohub,2013-06-21 15:57:00,
2013-06-22 05:02:00,48.6,43.9,29.85,NW,315,3.0,3.0,84,0.00,,,0.00,meteohub,2013-06-21 16:02:00,
2013-06-22 05:07:00,49.1,44.2,29.85,North,0,2.0,4.0,83,0.00,,,0.00,meteohub,2013-06-21 16:07:00,
2013-06-22 05:12:00,49.3,44.1,29.86,NW,315,1.0,4.0,82,0.00,,,0.00,meteohub,2013-06-21 16:12:00,
2013-06-22 05:17:00,49.6,44.4,29.85,SW,225,1.0,4.0,82,0.00,,,0.00,meteohub,2013-06-21 16:17:00,
2013-06-22 05:22:00,50.2,44.2,29.85,SE,135,0.0,2.0,80,0.00,,,0.00,meteohub,2013-06-21 16:22:00,
2013-06-22 05:27:00,50.4,44.1,29.85,SE,135,1.0,2.0,79,0.00,,,0.00,meteohub,2013-06-21 16:27:00,
2013-06-22 05:32:00,50.5,43.9,29.85,SW,225,0.0,2.0,78,0.00,,,0.00,meteohub,2013-06-21 16:32:00,
2013-06-22 05:37:00,50.7,44.1,29.86,West,270,1.0,2.0,78,0.00,,,0.00,meteohub,2013-06-21 16:37:00,
2013-06-22 05:43:00,51.1,43.5,29.85,North,0,0.0,2.0,75,0.00,,,0.00,meteohub,2013-06-21 16:43:00,
2013-06-22 05:49:00,51.3,43.9,29.85,West,270,2.0,2.0,76,0.00,,,0.00,meteohub,2013-06-21 16:49:00,
2013-06-22 05:55:00,52.0,43.9,29.85,SW,225,0.0,2.0,74,0.00,,,0.00,meteohub,2013-06-21 16:55:00,
2013-06-22 06:01:00,52.5,44.4,29.85,West,270,1.0,2.0,74,0.00,,,0.00,meteohub,2013-06-21 17:01:00,
2013-06-22 06:07:00,53.1,44.2,29.85,NE,45,1.0,2.0,72,0.00,,,0.00,meteohub,2013-06-21 17:07:00,
2013-06-22 06:14:00,53.4,43.9,29.85,SE,135,0.0,2.0,70,0.00,,,0.00,meteohub,2013-06-21 17:14:00,
2013-06-22 06:20:00,53.4,43.5,29.85,SE,135,2.0,2.0,69,0.00,,,0.00,meteohub,2013-06-21 17:20:00,
2013-06-22 06:26:00,53.1,42.4,29.84,South,180,2.0,2.0,67,0.00,,,0.00,meteohub,2013-06-21 17:26:00,
2013-06-22 06:32:00,53.1,42.1,29.85,NE,45,1.0,2.0,66,0.00,,,0.00,meteohub,2013-06-21 17:32:00,
2013-06-22 06:38:00,53.4,42.3,29.85,NE,45,2.0,3.0,66,0.00,,,0.00,meteohub,2013-06-21 17:38:00,
2013-06-22 06:44:00,54.0,42.8,29.85,SE,135,1.0,3.0,66,0.00,,,0.00,meteohub,2013-06-21 17:44:00,
2013-06-22 06:47:00,54.3,43.5,29.85,NW,315,1.0,3.0,67,0.00,,,0.00,meteohub,2013-06-21 17:47:00,
2013-06-22 06:52:00,55.0,44.6,29.85,North,0,3.0,3.0,68,0.00,,,0.00,meteohub,2013-06-21 17:52:00,
2013-06-22 06:53:00,55.0,44.6,29.85,North,0,2.0,2.0,68,0.00,,,0.00,meteohub,2013-06-21 17:53:00,
2013-06-22 07:00:00,55.4,44.2,29.85,SW,225,1.0,3.0,66,0.00,,,0.00,meteohub,2013-06-21 18:00:00,
2013-06-22 07:06:00,55.8,43.7,29.85,North,0,2.0,3.0,64,0.00,,,0.00,meteohub,2013-06-21 18:06:00,
2013-06-22 07:12:00,55.8,43.3,29.85,ESE,113,2.0,2.0,63,0.00,,,0.00,meteohub,2013-06-21 18:12:00,
2013-06-22 07:17:00,55.9,43.5,29.85,SE,135,2.0,2.0,63,0.00,,,0.00,meteohub,2013-06-21 18:17:00,
2013-06-22 07:22:00,56.3,44.2,29.85,NE,45,4.0,4.0,64,0.00,,,0.00,meteohub,2013-06-21 18:22:00,
2013-06-22 07:25:00,56.3,43.9,29.85,NE,45,2.0,4.0,63,0.00,,,0.00,meteohub,2013-06-21 18:25:00,
2013-06-22 07:27:00,56.5,44.1,29.85,NW,315,2.0,4.0,63,0.00,,,0.00,meteohub,2013-06-21 18:27:00,
2013-06-22 07:31:00,56.7,44.6,29.84,NE,45,4.0,4.0,64,0.00,,,0.00,meteohub,2013-06-21 18:31:00,
2013-06-22 07:32:00,56.7,44.6,29.84,NE,45,4.0,4.0,64,0.00,,,0.00,meteohub,2013-06-21 18:32:00,
2013-06-22 07:37:00,57.2,43.9,29.84,ENE,68,3.0,4.0,61,0.00,,,0.00,meteohub,2013-06-21 18:37:00,
2013-06-22 07:43:00,59.4,45.9,29.84,NNW,338,2.0,4.0,61,0.00,,,0.00,meteohub,2013-06-21 18:43:00,
2013-06-22 07:46:00,59.4,45.0,29.84,North,0,1.0,6.0,59,0.00,,,0.00,meteohub,2013-06-21 18:46:00,
2013-06-22 07:49:00,59.4,45.5,29.84,SW,225,2.0,6.0,60,0.00,,,0.00,meteohub,2013-06-21 18:49:00,
2013-06-22 07:55:00,59.2,44.4,29.84,North,0,2.0,6.0,58,0.00,,,0.00,meteohub,2013-06-21 18:55:00,
2013-06-22 08:01:00,58.8,45.0,29.84,WNW,293,2.0,2.0,60,0.00,,,0.00,meteohub,2013-06-21 19:01:00,
2013-06-22 08:04:00,58.8,44.1,29.83,ESE,113,0.0,2.0,58,0.00,,,0.00,meteohub,2013-06-21 19:04:00,
2013-06-22 08:10:00,59.2,44.4,29.84,South,180,2.0,2.0,58,0.00,,,0.00,meteohub,2013-06-21 19:10:00,
2013-06-22 08:16:00,60.4,46.4,29.83,NW,315,2.0,3.0,60,0.00,,,0.00,meteohub,2013-06-21 19:16:00,
2013-06-22 08:22:00,61.7,45.3,29.83,ENE,68,2.0,3.0,55,0.00,,,0.00,meteohub,2013-06-21 19:22:00,
2013-06-22 08:27:00,62.4,44.6,29.84,North,0,5.0,7.0,52,0.00,,,0.00,meteohub,2013-06-21 19:27:00,
2013-06-22 08:29:00,62.4,44.1,29.84,North,0,4.0,7.0,51,0.00,,,0.00,meteohub,2013-06-21 19:29:00,
2013-06-22 08:35:00,61.9,43.0,29.83,South,180,2.0,7.0,50,0.00,,,0.00,meteohub,2013-06-21 19:35:00,
2013-06-22 08:41:00,61.5,42.6,29.83,North,0,1.0,5.0,50,0.00,,,0.00,meteohub,2013-06-21 19:41:00,
2013-06-22 08:47:00,60.8,43.0,29.84,East,90,0.0,5.0,52,0.00,,,0.00,meteohub,2013-06-21 19:47:00,
2013-06-22 08:52:00,60.8,43.5,29.83,NNE,23,1.0,4.0,53,0.00,,,0.00,meteohub,2013-06-21 19:52:00,
2013-06-22 08:57:00,60.8,42.6,29.83,SE,135,2.0,3.0,51,0.00,,,0.00,meteohub,2013-06-21 19:57:00,
2013-06-22 09:02:00,60.8,43.5,29.83,South,180,3.0,3.0,53,0.00,,,0.00,meteohub,2013-06-21 20:02:00,
2013-06-22 09:07:00,60.8,44.6,29.83,South,180,1.0,3.0,55,0.00,,,0.00,meteohub,2013-06-21 20:07:00,
2013-06-22 09:12:00,61.0,43.2,29.83,East,90,4.0,5.0,52,0.00,,,0.00,meteohub,2013-06-21 20:12:00,
2013-06-22 09:17:00,60.8,43.0,29.83,North,0,2.0,7.0,52,0.00,,,0.00,meteohub,2013-06-21 20:17:00,
2013-06-22 09:22:00,60.4,44.2,29.83,SE,135,1.0,7.0,55,0.00,,,0.00,meteohub,2013-06-21 20:22:00,
2013-06-22 09:27:00,60.4,43.7,29.83,SE,135,1.0,7.0,54,0.00,,,0.00,meteohub,2013-06-21 20:27:00,
2013-06-22 09:32:00,60.4,44.2,29.83,East,90,1.0,5.0,55,0.00,,,0.00,meteohub,2013-06-21 20:32:00,
2013-06-22 09:37:00,60.4,44.2,29.83,NE,45,4.0,5.0,55,0.00,,,0.00,meteohub,2013-06-21 20:37:00,
2013-06-22 09:42:00,59.9,43.2,29.83,ENE,68,3.0,6.0,54,0.00,,,0.00,meteohub,2013-06-21 20:42:00,
2013-06-22 09:47:00,59.5,42.8,29.83,South,180,1.0,6.0,54,0.00,,,0.00,meteohub,2013-06-21 20:47:00,
2013-06-22 09:52:00,58.8,43.2,29.83,NW,315,1.0,6.0,56,0.00,,,0.00,meteohub,2013-06-21 20:52:00,
2013-06-22 09:57:00,58.3,43.2,29.83,SW,225,3.0,5.0,57,0.00,,,0.00,meteohub,2013-06-21 20:57:00,
2013-06-22 10:02:00,58.3,43.5,29.83,West,270,2.0,3.0,58,0.00,,,0.00,meteohub,2013-06-21 21:02:00,
2013-06-22 10:06:00,58.1,43.9,29.83,NNE,23,3.0,3.0,59,0.00,,,0.00,meteohub,2013-06-21 21:06:00,
2013-06-22 10:12:00,58.1,43.0,29.84,North,0,2.0,4.0,57,0.00,,,0.00,meteohub,2013-06-21 21:12:00,
2013-06-22 10:17:00,57.9,43.2,29.83,NE,45,1.0,4.0,58,0.00,,,0.00,meteohub,2013-06-21 21:17:00,
2013-06-22 10:22:00,57.7,42.6,29.84,NE,45,2.0,4.0,57,0.00,,,0.00,meteohub,2013-06-21 21:22:00,
2013-06-22 10:27:00,57.7,43.5,29.84,NE,45,2.0,5.0,59,0.00,,,0.00,meteohub,2013-06-21 21:27:00,
2013-06-22 10:32:00,57.6,44.2,29.84,SE,135,2.0,5.0,61,0.00,,,0.00,meteohub,2013-06-21 21:32:00,
2013-06-22 10:37:00,57.4,44.1,29.83,NE,45,1.0,5.0,61,0.00,,,0.00,meteohub,2013-06-21 21:37:00,
2013-06-22 10:42:00,57.4,44.1,29.84,SW,225,0.0,2.0,61,0.00,,,0.00,meteohub,2013-06-21 21:42:00,
2013-06-22 10:47:00,57.4,44.1,29.84,East,90,2.0,2.0,61,0.00,,,0.00,meteohub,2013-06-21 21:47:00,
2013-06-22 10:55:00,57.2,43.9,29.84,NE,45,1.0,3.0,61,0.00,,,0.00,meteohub,2013-06-21 21:55:00,
2013-06-22 11:01:00,57.2,43.9,29.84,NE,45,1.0,3.0,61,0.00,,,0.00,meteohub,2013-06-21 22:01:00,
2013-06-22 11:07:00,57.4,44.4,29.84,SW,225,1.0,2.0,62,0.00,,,0.00,meteohub,2013-06-21 22:07:00,
2013-06-22 11:12:00,57.4,44.1,29.84,SE,135,1.0,2.0,61,0.00,,,0.00,meteohub,2013-06-21 22:12:00,
2013-06-22 11:17:00,57.6,44.2,29.84,North,0,1.0,2.0,61,0.00,,,0.00,meteohub,2013-06-21 22:17:00,
2013-06-22 11:22:00,57.7,44.4,29.84,South,180,1.0,2.0,61,0.00,,,0.00,meteohub,2013-06-21 22:22:00,
2013-06-22 11:27:00,57.6,44.2,29.84,North,0,2.0,2.0,61,0.00,,,0.00,meteohub,2013-06-21 22:27:00,
2013-06-22 11:32:00,57.2,43.0,29.84,NE,45,9.0,9.0,59,0.00,,,0.00,meteohub,2013-06-21 22:32:00,
2013-06-22 11:37:00,56.8,43.5,29.85,NW,315,4.0,9.0,61,0.00,,,0.00,meteohub,2013-06-21 22:37:00,
2013-06-22 11:42:00,56.5,43.7,29.85,North,0,4.0,9.0,62,0.00,,,0.00,meteohub,2013-06-21 22:42:00,
2013-06-22 11:47:00,56.3,43.5,29.86,WNW,293,2.0,9.0,62,0.00,,,0.00,meteohub,2013-06-21 22:47:00,
2013-06-22 11:52:00,55.9,43.5,29.85,NE,45,2.0,7.0,63,0.00,,,0.00,meteohub,2013-06-21 22:52:00,
2013-06-22 11:57:00,55.8,43.3,29.85,North,0,4.0,7.0,63,0.00,,,0.00,meteohub,2013-06-21 22:57:00,
2013-06-22 12:02:00,55.8,43.3,29.86,NW,315,4.0,7.0,63,0.00,,,0.00,meteohub,2013-06-21 23:02:00,
2013-06-22 12:07:00,55.6,43.2,29.86,NW,315,3.0,7.0,63,0.00,,,0.00,meteohub,2013-06-21 23:07:00,
2013-06-22 12:12:00,55.4,43.3,29.85,NE,45,2.0,7.0,64,0.00,,,0.00,meteohub,2013-06-21 23:12:00,
2013-06-22 12:17:00,55.6,43.5,29.85,NNE,23,3.0,7.0,64,0.00,,,0.00,meteohub,2013-06-21 23:17:00,
2013-06-22 12:22:00,55.6,43.5,29.85,East,90,1.0,8.0,64,0.00,,,0.00,meteohub,2013-06-21 23:22:00,
2013-06-22 12:28:00,55.9,43.9,29.85,NE,45,1.0,8.0,64,0.00,,,0.00,meteohub,2013-06-21 23:28:00,
2013-06-22 12:34:00,56.3,44.2,29.85,NE,45,2.0,8.0,64,0.00,,,0.00,meteohub,2013-06-21 23:34:00,
2013-06-22 12:40:00,56.3,43.9,29.85,SE,135,4.0,9.0,63,0.00,,,0.00,meteohub,2013-06-21 23:40:00,
2013-06-22 12:46:00,56.5,44.4,29.85,North,0,2.0,9.0,64,0.00,,,0.00,meteohub,2013-06-21 23:46:00,
2013-06-22 12:52:00,56.7,44.6,29.85,East,90,2.0,8.0,64,0.00,,,0.00,meteohub,2013-06-21 23:52:00,
2013-06-22 12:57:00,56.7,44.2,29.86,East,90,2.0,6.0,63,0.00,,,0.00,meteohub,2013-06-21 23:57:00,
2013-06-22 13:02:00,56.7,44.2,29.85,NE,45,3.0,6.0,63,0.00,,,0.00,meteohub,2013-06-22 00:02:00,
2013-06-22 13:07:00,56.7,44.2,29.85,NNE,23,7.0,7.0,63,0.00,,,0.00,meteohub,2013-06-22 00:07:00,
2013-06-22 13:12:00,56.5,43.7,29.85,North,0,3.0,7.0,62,0.00,,,0.00,meteohub,2013-06-22 00:12:00,
2013-06-22 13:17:00,56.3,43.9,29.85,North,0,2.0,7.0,63,0.00,,,0.00,meteohub,2013-06-22 00:17:00,
2013-06-22 13:22:00,56.5,44.1,29.84,NW,315,4.0,7.0,63,0.00,,,0.00,meteohub,2013-06-22 00:22:00,
2013-06-22 13:27:00,56.5,44.1,29.85,NE,45,3.0,4.0,63,0.00,,,0.00,meteohub,2013-06-22 00:27:00,
2013-06-22 13:32:00,56.5,44.1,29.85,NE,45,1.0,6.0,63,0.00,,,0.00,meteohub,2013-06-22 00:32:00,
2013-06-22 13:37:00,56.5,44.1,29.85,NE,45,5.0,6.0,63,0.00,,,0.00,meteohub,2013-06-22 00:37:00,
2013-06-22 13:42:00,56.5,44.1,29.85,NE,45,2.0,6.0,63,0.00,,,0.00,meteohub,2013-06-22 00:42:00,
2013-06-22 13:47:00,56.3,43.9,29.85,North,0,5.0,5.0,63,0.00,,,0.00,meteohub,2013-06-22 00:47:00,
2013-06-22 13:52:00,56.1,43.7,29.85,NNW,338,2.0,5.0,63,0.00,,,0.00,meteohub,2013-06-22 00:52:00,
2013-06-22 13:57:00,55.9,43.5,29.84,NE,45,2.0,5.0,63,0.00,,,0.00,meteohub,2013-06-22 00:57:00,
2013-06-22 14:02:00,55.8,43.3,29.85,North,0,4.0,5.0,63,0.00,,,0.00,meteohub,2013-06-22 01:02:00,
2013-06-22 14:07:00,55.8,43.3,29.84,NE,45,2.0,4.0,63,0.00,,,0.00,meteohub,2013-06-22 01:07:00,
2013-06-22 14:12:00,55.8,43.3,29.84,North,0,2.0,5.0,63,0.00,,,0.00,meteohub,2013-06-22 01:12:00,
2013-06-22 14:17:00,55.8,43.3,29.84,NE,45,2.0,5.0,63,0.00,,,0.00,meteohub,2013-06-22 01:17:00,
2013-06-22 14:22:00,55.9,43.9,29.84,NW,315,2.0,4.0,64,0.00,,,0.00,meteohub,2013-06-22 01:22:00,
2013-06-22 14:27:00,55.9,43.5,29.85,NE,45,4.0,6.0,63,0.00,,,0.00,meteohub,2013-06-22 01:27:00,
2013-06-22 14:32:00,55.8,43.3,29.85,East,90,2.0,6.0,63,0.00,,,0.00,meteohub,2013-06-22 01:32:00,
2013-06-22 14:37:00,55.9,43.5,29.85,NE,45,2.0,6.0,63,0.00,,,0.00,meteohub,2013-06-22 01:37:00,
2013-06-22 14:42:00,55.9,43.5,29.84,NW,315,2.0,4.0,63,0.00,,,0.00,meteohub,2013-06-22 01:42:00,
2013-06-22 14:47:00,55.9,43.2,29.85,NE,45,2.0,5.0,62,0.00,,,0.00,meteohub,2013-06-22 01:47:00,
2013-06-22 14:52:00,55.8,43.3,29.85,East,90,2.0,6.0,63,0.00,,,0.00,meteohub,2013-06-22 01:52:00,
2013-06-22 14:57:00,55.8,43.0,29.85,North,0,0.0,6.0,62,0.00,,,0.00,meteohub,2013-06-22 01:57:00,
2013-06-22 15:02:00,55.8,43.0,29.84,NE,45,2.0,6.0,62,0.00,,,0.00,meteohub,2013-06-22 02:02:00,
2013-06-22 15:07:00,55.8,43.0,29.84,NE,45,2.0,6.0,62,0.00,,,0.00,meteohub,2013-06-22 02:07:00,
2013-06-22 15:12:00,55.8,43.0,29.84,South,180,1.0,4.0,62,0.00,,,0.00,meteohub,2013-06-22 02:12:00,
2013-06-22 15:17:00,55.6,43.2,29.85,NW,315,3.0,3.0,63,0.00,,,0.00,meteohub,2013-06-22 02:17:00,
2013-06-22 15:22:00,55.6,43.2,29.85,NE,45,2.0,4.0,63,0.00,,,0.00,meteohub,2013-06-22 02:22:00,
2013-06-22 15:27:00,55.6,43.2,29.85,West,270,2.0,4.0,63,0.00,,,0.00,meteohub,2013-06-22 02:27:00,
2013-06-22 15:32:00,55.4,43.0,29.85,NE,45,0.0,4.0,63,0.00,,,0.00,meteohub,2013-06-22 02:32:00,
2013-06-22 15:37:00,55.2,43.3,29.85,NE,45,1.0,4.0,64,0.00,,,0.00,meteohub,2013-06-22 02:37:00,
2013-06-22 15:42:00,55.2,43.7,29.85,NE,45,0.0,2.0,65,0.00,,,0.00,meteohub,2013-06-22 02:42:00,
2013-06-22 15:47:00,55.0,43.5,29.85,NE,45,0.0,2.0,65,0.00,,,0.00,meteohub,2013-06-22 02:47:00,
2013-06-22 15:52:00,54.9,43.3,29.85,NE,45,1.0,2.0,65,0.00,,,0.00,meteohub,2013-06-22 02:52:00,
2013-06-22 15:57:00,54.9,43.3,29.85,NE,45,0.0,2.0,65,0.00,,,0.00,meteohub,2013-06-22 02:57:00,
2013-06-22 16:02:00,54.9,43.7,29.85,NE,45,0.0,2.0,66,0.00,,,0.00,meteohub,2013-06-22 03:02:00,
2013-06-22 16:07:00,54.7,43.9,29.86,SW,225,1.0,2.0,67,0.00,,,0.00,meteohub,2013-06-22 03:07:00,
2013-06-22 16:12:00,54.5,43.3,29.85,NE,45,0.0,1.0,66,0.00,,,0.00,meteohub,2013-06-22 03:12:00,
2013-06-22 16:17:00,54.5,43.3,29.85,NE,45,2.0,2.0,66,0.00,,,0.00,meteohub,2013-06-22 03:17:00,
2013-06-22 16:22:00,54.3,42.8,29.85,East,90,0.0,3.0,65,0.00,,,0.00,meteohub,2013-06-22 03:22:00,
2013-06-22 16:27:00,54.3,43.5,29.85,NE,45,1.0,3.0,67,0.00,,,0.00,meteohub,2013-06-22 03:27:00,
2013-06-22 16:32:00,54.1,43.9,29.86,NE,45,0.0,3.0,68,0.00,,,0.00,meteohub,2013-06-22 03:32:00,
2013-06-22 16:37:00,53.8,43.5,29.85,NE,45,0.0,2.0,68,0.00,,,0.00,meteohub,2013-06-22 03:37:00,
2013-06-22 16:42:00,53.6,43.3,29.85,NE,45,0.0,2.0,68,0.00,,,0.00,meteohub,2013-06-22 03:42:00,
2013-06-22 16:47:00,53.4,43.9,29.85,NE,45,0.0,2.0,70,0.00,,,0.00,meteohub,2013-06-22 03:47:00,
2013-06-22 16:52:00,53.2,44.1,29.85,NE,45,0.0,0.0,71,0.00,,,0.00,meteohub,2013-06-22 03:52:00,
2013-06-22 16:57:00,52.9,43.7,29.85,NE,45,0.0,0.0,71,0.00,,,0.00,meteohub,2013-06-22 03:57:00,
2013-06-22 17:02:00,52.7,43.2,29.85,NE,45,0.0,0.0,70,0.00,,,0.00,meteohub,2013-06-22 04:02:00,
2013-06-22 17:05:00,52.7,43.2,29.85,NE,45,0.0,0.0,70,0.00,,,0.00,meteohub,2013-06-22 04:05:00,
2013-06-22 17:08:00,52.5,43.0,29.85,NE,45,0.0,0.0,70,0.00,,,0.00,meteohub,2013-06-22 04:08:00,
2013-06-22 17:14:00,52.3,43.2,29.85,NE,45,0.0,0.0,71,0.00,,,0.00,meteohub,2013-06-22 04:14:00,
2013-06-22 17:20:00,52.2,43.3,29.86,NE,45,0.0,0.0,72,0.00,,,0.00,meteohub,2013-06-22 04:20:00,
2013-06-22 17:26:00,51.8,42.6,29.86,NE,45,0.0,0.0,71,0.00,,,0.00,meteohub,2013-06-22 04:26:00,
2013-06-22 17:27:00,51.8,42.6,29.86,NE,45,0.0,0.0,71,0.00,,,0.00,meteohub,2013-06-22 04:27:00,
2013-06-22 17:32:00,51.8,43.0,29.86,NE,45,0.0,0.0,72,0.00,,,0.00,meteohub,2013-06-22 04:32:00,
2013-06-22 17:37:00,51.6,43.5,29.86,NE,45,0.0,0.0,74,0.00,,,0.00,meteohub,2013-06-22 04:37:00,
2013-06-22 17:42:00,51.6,43.5,29.86,NE,45,0.0,0.0,74,0.00,,,0.00,meteohub,2013-06-22 04:42:00,
2013-06-22 17:47:00,51.6,43.5,29.86,NE,45,0.0,0.0,74,0.00,,,0.00,meteohub,2013-06-22 04:47:00,
2013-06-22 17:52:00,51.4,43.5,29.86,NE,45,0.0,0.0,74,0.00,,,0.00,meteohub,2013-06-22 04:52:00,
2013-06-22 17:57:00,51.4,43.7,29.86,NE,45,0.0,0.0,75,0.00,,,0.00,meteohub,2013-06-22 04:57:00,
2013-06-22 18:02:00,51.3,43.5,29.87,NE,45,0.0,0.0,75,0.00,,,0.00,meteohub,2013-06-22 05:02:00,
2013-06-22 18:07:00,51.1,43.5,29.87,NE,45,0.0,0.0,75,0.00,,,0.00,meteohub,2013-06-22 05:07:00,
2013-06-22 18:12:00,50.9,43.3,29.86,NE,45,0.0,0.0,75,0.00,,,0.00,meteohub,2013-06-22 05:12:00,
2013-06-22 18:17:00,50.9,43.5,29.87,NE,45,0.0,0.0,76,0.00,,,0.00,meteohub,2013-06-22 05:17:00,
2013-06-22 18:22:00,50.7,43.7,29.86,NE,45,0.0,0.0,77,0.00,,,0.00,meteohub,2013-06-22 05:22:00,
2013-06-22 18:27:00,50.7,43.7,29.86,NE,45,0.0,0.0,77,0.00,,,0.00,meteohub,2013-06-22 05:27:00,
2013-06-22 18:32:00,50.5,43.9,29.87,NE,45,0.0,0.0,78,0.00,,,0.00,meteohub,2013-06-22 05:32:00,
2013-06-22 18:37:00,50.5,43.9,29.87,NE,45,0.0,0.0,78,0.00,,,0.00,meteohub,2013-06-22 05:37:00,
2013-06-22 18:42:00,50.2,43.9,29.87,NE,45,0.0,0.0,79,0.00,,,0.00,meteohub,2013-06-22 05:42:00,
2013-06-22 18:47:00,50.0,43.7,29.86,NE,45,0.0,0.0,79,0.00,,,0.00,meteohub,2013-06-22 05:47:00,
2013-06-22 18:52:00,49.8,44.2,29.86,NE,45,0.0,0.0,81,0.00,,,0.00,meteohub,2013-06-22 05:52:00,
2013-06-22 18:57:00,49.5,43.9,29.86,NE,45,0.0,0.0,81,0.00,,,0.00,meteohub,2013-06-22 05:57:00,
2013-06-22 19:02:00,49.3,43.7,29.86,NE,45,0.0,0.0,81,0.00,,,0.00,meteohub,2013-06-22 06:02:00,
2013-06-22 19:07:00,49.3,43.7,29.86,NE,45,0.0,0.0,81,0.00,,,0.00,meteohub,2013-06-22 06:07:00,
2013-06-22 19:12:00,48.6,43.0,29.86,NE,45,0.0,0.0,81,0.00,,,0.00,meteohub,2013-06-22 06:12:00,
2013-06-22 19:17:00,48.2,42.6,29.86,NE,45,0.0,0.0,81,0.00,,,0.00,meteohub,2013-06-22 06:17:00,
2013-06-22 19:22:00,47.7,42.4,29.85,NE,45,0.0,0.0,82,0.00,,,0.00,meteohub,2013-06-22 06:22:00,
2013-06-22 19:27:00,47.3,42.4,29.86,NE,45,0.0,0.0,83,0.00,,,0.00,meteohub,2013-06-22 06:27:00,
2013-06-22 19:32:00,46.8,41.9,29.86,NE,45,0.0,0.0,83,0.00,,,0.00,meteohub,2013-06-22 06:32:00,
2013-06-22 19:37:00,46.4,41.5,29.86,NE,45,0.0,0.0,83,0.00,,,0.00,meteohub,2013-06-22 06:37:00,
2013-06-22 19:42:00,46.0,41.2,29.85,NE,45,0.0,0.0,83,0.00,,,0.00,meteohub,2013-06-22 06:42:00,
2013-06-22 19:47:00,45.9,41.4,29.85,NE,45,0.0,0.0,84,0.00,,,0.00,meteohub,2013-06-22 06:47:00,
2013-06-22 19:52:00,45.5,41.0,29.85,NE,45,0.0,0.0,84,0.00,,,0.00,meteohub,2013-06-22 06:52:00,
2013-06-22 19:57:00,45.1,40.8,29.85,NE,45,0.0,0.0,85,0.00,,,0.00,meteohub,2013-06-22 06:57:00,
2013-06-22 20:02:00,44.8,40.5,29.85,NE,45,0.0,0.0,85,0.00,,,0.00,meteohub,2013-06-22 07:02:00,
2013-06-22 20:07:00,44.6,40.6,29.85,NE,45,0.0,0.0,86,0.00,,,0.00,meteohub,2013-06-22 07:07:00,
2013-06-22 20:12:00,44.2,40.6,29.86,NE,45,0.0,0.0,87,0.00,,,0.00,meteohub,2013-06-22 07:12:00,
2013-06-22 20:17:00,44.1,40.8,29.86,NE,45,0.0,0.0,88,0.00,,,0.00,meteohub,2013-06-22 07:17:00,
2013-06-22 20:22:00,43.9,40.6,29.86,NE,45,0.0,0.0,88,0.00,,,0.00,meteohub,2013-06-22 07:22:00,
2013-06-22 20:27:00,43.7,40.5,29.85,NE,45,0.0,0.0,88,0.00,,,0.00,meteohub,2013-06-22 07:27:00,
2013-06-22 20:32:00,43.5,40.3,29.85,NE,45,0.0,0.0,88,0.00,,,0.00,meteohub,2013-06-22 07:32:00,
2013-06-22 20:37:00,43.2,39.9,29.86,NE,45,0.0,0.0,88,0.00,,,0.00,meteohub,2013-06-22 07:37:00,
2013-06-22 20:42:00,42.8,39.7,29.86,NE,45,0.0,0.0,89,0.00,,,0.00,meteohub,2013-06-22 07:42:00,
2013-06-22 20:47:00,42.6,39.9,29.86,NE,45,0.0,0.0,90,0.00,,,0.00,meteohub,2013-06-22 07:47:00,
2013-06-22 20:52:00,42.3,39.6,29.86,NE,45,0.0,0.0,90,0.00,,,0.00,meteohub,2013-06-22 07:52:00,
2013-06-22 20:57:00,41.9,39.2,29.86,NE,45,0.0,0.0,90,0.00,,,0.00,meteohub,2013-06-22 07:57:00,
2013-06-22 21:02:00,41.7,39.0,29.85,NE,45,0.0,0.0,90,0.00,,,0.00,meteohub,2013-06-22 08:02:00,
2013-06-22 21:07:00,41.7,39.0,29.85,NE,45,0.0,0.0,90,0.00,,,0.00,meteohub,2013-06-22 08:07:00,
2013-06-22 21:12:00,41.4,39.0,29.85,NE,45,0.0,0.0,91,0.00,,,0.00,meteohub,2013-06-22 08:12:00,
2013-06-22 21:17:00,41.0,38.7,29.84,NE,45,0.0,0.0,91,0.00,,,0.00,meteohub,2013-06-22 08:17:00,
2013-06-22 21:22:00,40.8,39.0,29.85,NE,45,1.0,0.0,93,0.00,,,0.00,meteohub,2013-06-22 08:22:00,
2013-06-22 21:27:00,40.5,38.7,29.85,NE,45,0.0,1.0,93,0.00,,,0.00,meteohub,2013-06-22 08:27:00,
2013-06-22 21:32:00,40.3,38.5,29.85,NE,45,0.0,1.0,93,0.00,,,0.00,meteohub,2013-06-22 08:32:00,
2013-06-22 21:37:00,40.1,38.5,29.84,NE,45,0.0,1.0,94,0.00,,,0.00,meteohub,2013-06-22 08:37:00,
2013-06-22 21:42:00,39.9,38.3,29.84,NE,45,0.0,0.0,94,0.00,,,0.00,meteohub,2013-06-22 08:42:00,
2013-06-22 21:47:00,39.7,38.1,29.85,NE,45,0.0,0.0,94,0.00,,,0.00,meteohub,2013-06-22 08:47:00,
2013-06-22 21:52:00,39.4,37.8,29.84,NE,45,0.0,0.0,94,0.00,,,0.00,meteohub,2013-06-22 08:52:00,
2013-06-22 21:57:00,39.2,37.6,29.84,NE,45,0.0,0.0,94,0.00,,,0.00,meteohub,2013-06-22 08:57:00,
2013-06-22 22:02:00,39.0,37.9,29.84,NE,45,0.0,0.0,96,0.00,,,0.00,meteohub,2013-06-22 09:02:00,
2013-06-22 22:07:00,38.8,37.8,29.84,NE,45,0.0,0.0,96,0.00,,,0.00,meteohub,2013-06-22 09:07:00,
2013-06-22 22:12:00,38.7,37.6,29.84,NE,45,0.0,0.0,96,0.00,,,0.00,meteohub,2013-06-22 09:12:00,
2013-06-22 22:17:00,38.5,37.4,29.84,NE,45,0.0,0.0,96,0.00,,,0.00,meteohub,2013-06-22 09:17:00,
2013-06-22 22:22:00,38.3,37.2,29.84,NE,45,0.0,0.0,96,0.00,,,0.00,meteohub,2013-06-22 09:22:00,
2013-06-22 22:27:00,38.3,37.2,29.84,NE,45,0.0,0.0,96,0.00,,,0.00,meteohub,2013-06-22 09:27:00,
2013-06-22 22:32:00,38.1,37.4,29.84,NE,45,0.0,0.0,97,0.00,,,0.00,meteohub,2013-06-22 09:32:00,
2013-06-22 22:37:00,37.9,37.2,29.84,NE,45,0.0,0.0,97,0.00,,,0.00,meteohub,2013-06-22 09:37:00,
2013-06-22 22:42:00,37.8,37.0,29.85,NE,45,0.0,0.0,97,0.00,,,0.00,meteohub,2013-06-22 09:42:00,
2013-06-22 22:47:00,37.8,37.0,29.84,NE,45,0.0,0.0,97,0.00,,,0.00,meteohub,2013-06-22 09:47:00,
2013-06-22 22:52:00,37.6,36.9,29.84,NE,45,0.0,0.0,97,0.00,,,0.00,meteohub,2013-06-22 09:52:00,
2013-06-22 22:57:00,37.6,36.9,29.84,NE,45,0.0,0.0,97,0.00,,,0.00,meteohub,2013-06-22 09:57:00,
2013-06-22 23:02:00,37.4,36.7,29.84,NE,45,0.0,0.0,97,0.00,,,0.00,meteohub,2013-06-22 10:02:00,
2013-06-22 23:07:00,37.4,36.7,29.84,NE,45,0.0,0.0,97,0.00,,,0.00,meteohub,2013-06-22 10:07:00,
2013-06-22 23:12:00,37.2,35.6,29.84,NE,45,0.0,0.0,94,0.00,,,0.00,meteohub,2013-06-22 10:12:00,
2013-06-22 23:17:00,37.0,35.4,29.83,NE,45,0.0,0.0,94,0.00,,,0.00,meteohub,2013-06-22 10:17:00,
2013-06-22 23:22:00,36.9,35.2,29.84,NE,45,0.0,0.0,94,0.00,,,0.00,meteohub,2013-06-22 10:22:00,
2013-06-22 23:27:00,36.7,35.1,29.83,NE,45,0.0,0.0,94,0.00,,,0.00,meteohub,2013-06-22 10:27:00,
2013-06-22 23:32:00,36.5,34.9,29.83,NE,45,0.0,0.0,94,0.00,,,0.00,meteohub,2013-06-22 10:32:00,
2013-06-22 23:37:00,36.5,34.9,29.83,NE,45,0.0,0.0,94,0.00,,,0.00,meteohub,2013-06-22 10:37:00,
2013-06-22 23:42:00,36.3,34.7,29.83,NE,45,0.0,0.0,94,0.00,,,0.00,meteohub,2013-06-22 10:42:00,
2013-06-22 23:47:00,36.1,34.5,29.83,SW,225,0.0,0.0,94,0.00,,,0.00,meteohub,2013-06-22 10:47:00,
2013-06-22 23:52:00,36.1,34.5,29.83,SW,225,0.0,1.0,94,0.00,,,0.00,meteohub,2013-06-22 10:52:00,
2013-06-22 23:57:00,36.0,34.3,29.83,SW,225,0.0,1.0,94,0.00,,,0.00,meteohub,2013-06-22 10:57:00,